TimePDT,TemperatureF,Dew PointF,Humidity,Sea Level PressureIn,VisibilityMPH,Wind Direction,Wind SpeedMPH,Gust SpeedMPH,PrecipitationIn,Events,Conditions,WindDirDegrees,DateUTC
12:15 AM,62.6,55.4,77,30.00,10.0,Calm,Calm,-,N/A,,Overcast,0,2013-09-12 07:15:00
12:35 AM,62.6,55.4,77,30.00,10.0,WNW,4.6,-,N/A,,Overcast,300,2013-09-12 07:35:00
12:55 AM,60.8,55.4,82,30.01,10.0,West,3.5,-,N/A,,Overcast,280,2013-09-12 07:55:00
1:15 AM,62.6,55.4,77,30.01,10.0,WNW,4.6,-,N/A,,Overcast,290,2013-09-12 08:15:00
1:35 AM,60.8,55.4,82,30.01,10.0,NW,3.5,-,N/A,,Overcast,310,2013-09-12 08:35:00
1:55 AM,60.8,55.4,82,30.01,10.0,NW,4.6,-,N/A,,Overcast,320,2013-09-12 08:55:00
2:15 AM,60.8,55.4,82,30.02,10.0,WNW,3.5,-,N/A,,Overcast,290,2013-09-12 09:15:00
2:35 AM,60.8,55.4,82,30.02,10.0,West,4.6,-,N/A,,Overcast,280,2013-09-12 09:35:00
2:55 AM,60.8,55.4,82,30.02,10.0,Calm,Calm,-,N/A,,Overcast,0,2013-09-12 09:55:00
3:15 AM,60.8,55.4,82,30.03,10.0,Calm,Calm,-,N/A,,Overcast,0,2013-09-12 10:15:00
3:35 AM,60.8,55.4,82,30.03,10.0,Calm,Calm,-,N/A,,Overcast,0,2013-09-12 10:35:00
3:55 AM,60.8,55.4,82,30.03,10.0,NW,3.5,-,N/A,,Overcast,310,2013-09-12 10:55:00
4:15 AM,60.8,55.4,82,30.03,10.0,NW,3.5,-,N/A,,Overcast,320,2013-09-12 11:15:00
4:35 AM,60.8,53.6,77,30.03,10.0,North,3.5,-,N/A,,Overcast,350,2013-09-12 11:35:00
4:55 AM,60.8,53.6,77,30.03,10.0,Calm,Calm,-,N/A,,Overcast,0,2013-09-12 11:55:00
5:15 AM,60.8,53.6,77,30.03,10.0,NNW,4.6,-,N/A,,Overcast,340,2013-09-12 12:15:00
5:35 AM,60.8,53.6,77,30.03,10.0,NNW,4.6,-,N/A,,Overcast,330,2013-09-12 12:35:00
5:55 AM,60.8,53.6,77,30.04,10.0,Calm,Calm,-,N/A,,Overcast,0,2013-09-12 12:55:00
6:15 AM,60.8,53.6,77,30.04,10.0,NW,3.5,-,N/A,,Overcast,320,2013-09-12 13:15:00
6:35 AM,60.8,53.6,77,30.04,10.0,Calm,Calm,-,N/A,,Overcast,0,2013-09-12 13:35:00
6:55 AM,60.8,53.6,77,30.04,10.0,NNW,4.6,-,N/A,,Overcast,330,2013-09-12 13:55:00
7:15 AM,59.0,53.6,82,30.04,10.0,Calm,Calm,-,N/A,,Overcast,0,2013-09-12 14:15:00
7:35 AM,59.0,53.6,82,30.05,10.0,Calm,Calm,-,N/A,,Overcast,0,2013-09-12 14:35:00
7:55 AM,59.0,53.6,82,30.05,10.0,Calm,Calm,-,N/A,,Overcast,0,2013-09-12 14:55:00
8:15 AM,60.8,53.6,77,30.05,10.0,Calm,Calm,-,N/A,,Overcast,0,2013-09-12 15:15:00
8:35 AM,60.8,53.6,77,30.04,10.0,Calm,Calm,-,N/A,,Overcast,0,2013-09-12 15:35:00
8:55 AM,60.8,55.4,82,30.04,10.0,Calm,Calm,-,N/A,,Overcast,0,2013-09-12 15:55:00
9:15 AM,60.8,55.4,82,30.04,10.0,Calm,Calm,-,N/A,,Overcast,0,2013-09-12 16:15:00
9:35 AM,60.8,55.4,82,30.04,10.0,Calm,Calm,-,N/A,,Overcast,0,2013-09-12 16:35:00
9:55 AM,60.8,55.4,82,30.04,10.0,Calm,Calm,-,N/A,,Overcast,0,2013-09-12 16:55:00
10:15 AM,62.6,55.4,77,30.04,9.0,Calm,Calm,-,N/A,,Overcast,0,2013-09-12 17:15:00
10:35 AM,62.6,55.4,77,30.03,7.0,Calm,Calm,-,N/A,,Overcast,0,2013-09-12 17:35:00
10:55 AM,62.6,55.4,77,30.03,8.0,Calm,Calm,-,N/A,,Overcast,0,2013-09-12 17:55:00
11:15 AM,62.6,55.4,77,30.03,9.0,Calm,Calm,-,N/A,,Overcast,0,2013-09-12 18:15:00
11:35 AM,64.4,55.4,73,30.02,9.0,Calm,Calm,-,N/A,,Overcast,0,2013-09-12 18:35:00
11:55 AM,64.4,57.2,77,30.01,10.0,WSW,3.5,-,N/A,,Mostly Cloudy,240,2013-09-12 18:55:00
12:15 PM,66.2,57.2,73,30.01,10.0,West,4.6,-,N/A,,Scattered Clouds,260,2013-09-12 19:15:00
12:35 PM,68.0,57.2,68,30.00,10.0,West,4.6,-,N/A,,Partly Cloudy,260,2013-09-12 19:35:00
12:55 PM,68.0,57.2,68,30.00,10.0,West,4.6,-,N/A,,Clear,280,2013-09-12 19:55:00
1:15 PM,69.8,57.2,64,30.00,10.0,WNW,4.6,-,N/A,,Clear,290,2013-09-12 20:15:00
1:35 PM,71.6,59.0,64,29.99,10.0,West,3.5,-,N/A,,Clear,280,2013-09-12 20:35:00
1:55 PM,71.6,60.8,69,29.98,10.0,WSW,3.5,-,N/A,,Clear,250,2013-09-12 20:55:00
2:15 PM,73.4,60.8,65,29.98,10.0,West,3.5,-,N/A,,Clear,270,2013-09-12 21:15:00
2:35 PM,73.4,60.8,65,29.97,10.0,WNW,4.6,-,N/A,,Clear,290,2013-09-12 21:35:00
2:55 PM,75.2,60.8,61,29.97,10.0,West,6.9,-,N/A,,Clear,260,2013-09-12 21:55:00
3:15 PM,75.2,60.8,61,29.97,10.0,West,4.6,-,N/A,,Clear,270,2013-09-12 22:15:00
3:35 PM,75.2,62.6,65,29.97,10.0,WNW,8.1,-,N/A,,Clear,290,2013-09-12 22:35:00
3:55 PM,75.2,60.8,61,29.96,10.0,NW,5.8,-,N/A,,Clear,310,2013-09-12 22:55:00
4:15 PM,75.2,60.8,61,29.96,10.0,WNW,5.8,-,N/A,,Clear,300,2013-09-12 23:15:00
4:35 PM,73.4,60.8,65,29.96,10.0,West,4.6,-,N/A,,Clear,280,2013-09-12 23:35:00
4:55 PM,73.4,60.8,65,29.96,10.0,West,4.6,-,N/A,,Clear,270,2013-09-12 23:55:00
5:15 PM,73.4,60.8,65,29.96,10.0,WNW,5.8,-,N/A,,Clear,290,2013-09-13 00:15:00
5:35 PM,73.4,60.8,65,29.96,10.0,WNW,5.8,-,N/A,,Clear,290,2013-09-13 00:35:00
5:55 PM,71.6,60.8,69,29.96,10.0,WNW,5.8,-,N/A,,Clear,290,2013-09-13 00:55:00
6:15 PM,71.6,59.0,64,29.96,10.0,Calm,Calm,-,N/A,,Clear,0,2013-09-13 01:15:00
6:35 PM,69.8,59.0,68,29.96,10.0,WNW,4.6,-,N/A,,Clear,300,2013-09-13 01:35:00
6:55 PM,69.8,59.0,68,29.97,10.0,NNW,3.5,-,N/A,,Clear,330,2013-09-13 01:55:00
7:15 PM,69.8,57.2,64,29.96,10.0,NNW,4.6,-,N/A,,Clear,330,2013-09-13 02:15:00
7:35 PM,68.0,57.2,68,29.97,10.0,NW,5.8,-,N/A,,Clear,320,2013-09-13 02:35:00
7:55 PM,66.2,57.2,73,29.97,10.0,NW,4.6,-,N/A,,Clear,310,2013-09-13 02:55:00
8:15 PM,66.2,57.2,73,29.97,10.0,NW,3.5,-,N/A,,Clear,310,2013-09-13 03:15:00
8:35 PM,64.4,57.2,77,29.98,10.0,NW,3.5,-,N/A,,Clear,320,2013-09-13 03:35:00
8:55 PM,64.4,57.2,77,29.98,10.0,NW,3.5,-,N/A,,Clear,320,2013-09-13 03:55:00
9:15 PM,62.6,57.2,82,29.99,10.0,Calm,Calm,-,N/A,,Scattered Clouds,0,2013-09-13 04:15:00
9:35 PM,62.6,57.2,82,29.99,10.0,NW,3.5,-,N/A,,Overcast,320,2013-09-13 04:35:00
9:55 PM,62.6,57.2,82,30.00,10.0,Calm,Calm,-,N/A,,Overcast,0,2013-09-13 04:55:00
10:15 PM,62.6,57.2,82,30.00,10.0,Calm,Calm,-,N/A,,Overcast,0,2013-09-13 05:15:00
10:35 PM,62.6,55.4,77,30.00,10.0,Calm,Calm,-,N/A,,Overcast,0,2013-09-13 05:35:00
10:55 PM,62.6,55.4,77,30.00,10.0,West,3.5,-,N/A,,Overcast,270,2013-09-13 05:55:00
11:15 PM,62.6,55.4,77,30.00,10.0,West,3.5,-,N/A,,Overcast,270,2013-09-13 06:15:00
11:35 PM,62.6,55.4,77,30.00,10.0,Calm,Calm,-,N/A,,Overcast,0,2013-09-13 06:35:00
11:55 PM,62.6,55.4,77,30.00,10.0,Calm,Calm,-,N/A,,Overcast,0,2013-09-13 06:55:00